Flag for U.S.A. Weather past 2 weeks in Elizabeth, New Jersey, U.S.A.

Now
73 °F

Overcast.


Feels Like: 73 °F
Forecast: 71 / 88 °F
Wind: 8 mph from South

Location: Newark International Airport

Current Time: Aug 31, 2014 at 2:17:29 AM

Latest Report: Aug 31, 2014 at 12:51 AM


Visibility: 10 mi

Pressure: 30.15 "Hg

Humidity: 79%

Dew point: 66 °F

Location of ElizabethLocation

Historic Weather in Elizabeth — Graph

°F

Elizabeth temperature yesterday

Maximum temperature yesterday: 77 °F (at 12:51 PM)
Minimum temperature yesterday: 62 °F (at 5:51 AM)
Average temperature yesterday: 72 °F

Past Weeks' High & Low Weather Summary

 TemperatureHumidityPressure
High92 °F (Aug 27, 1:51 PM)90% (Aug 22, 12:51 AM)30.27 "Hg (Aug 22, 12:51 AM)
Low58 °F (Aug 16, 6:51 AM)32% (Aug 28, 3:51 PM)29.81 "Hg (Aug 17, 3:51 PM)
Average74 °F61%30.02 "Hg
* Reported Aug 16 12:51 AM — Aug 31 12:51 AM, Elizabeth, Weather by CustomWeather, © 2014

Note: Actual official high and low records may vary slightly from our data, if they occured in-between our weather recording intervals... More about our weather records

Advertising

Elizabeth weather history for previous 24 hours

 ConditionsComfort  
Time TempWeatherWind HumidityBarometerVisibility
12:51 AM
Aug 31
73 °FOvercast.8 mph79%30.15 "Hg10 mi
11:51 PM
Aug 30
73 °FOvercast.8 mph79%30.15 "Hg10 mi
10:51 PM73 °FPassing clouds.6 mph76%30.16 "Hg10 mi
9:51 PM74 °FMostly cloudy.10 mph74%30.16 "Hg10 mi
8:51 PM75 °FMostly cloudy.8 mph71%30.16 "Hg10 mi
7:51 PM75 °FMostly cloudy.8 mph74%30.15 "Hg10 mi
6:51 PM75 °FMore clouds than sun.10 mph71%30.15 "Hg10 mi
5:51 PM76 °FOvercast.12 mph69%30.16 "Hg10 mi
4:51 PM76 °FMore clouds than sun.9 mph69%30.16 "Hg10 mi
3:51 PM76 °FMostly cloudy.7 mph67%30.18 "Hg10 mi
2:51 PM77 °FMore clouds than sun.9 mph60%30.19 "Hg10 mi
1:51 PM76 °FOvercast.10 mph62%30.22 "Hg10 mi
12:51 PM77 °FPartly sunny.7 mph54%30.22 "Hg10 mi
11:51 AM76 °FScattered clouds.12 mph52%30.24 "Hg10 mi
10:51 AM75 °FScattered clouds.5 mph52%30.25 "Hg10 mi
9:51 AM73 °FScattered clouds.6 mph57%30.26 "Hg10 mi
8:51 AM71 °FScattered clouds.3 mph61%30.27 "Hg10 mi
7:51 AM68 °FPartly sunny.No wind70%30.27 "Hg10 mi
6:51 AM64 °FPassing clouds.No wind75%30.27 "Hg10 mi
5:51 AM62 °FPassing clouds.No wind78%30.27 "Hg10 mi
4:51 AM63 °FPassing clouds.3 mph75%30.26 "Hg10 mi
3:51 AM65 °FPassing clouds.No wind70%30.25 "Hg10 mi
2:51 AM66 °FPartly cloudy.No wind68%30.25 "Hg10 mi
Weather by CustomWeather, © 2014

See weather overviewHow to use our weather pages